When you browse on this site, cookies collect data to enhance your experience and personalize the content and advertising you see.
Visit our Privacy Policy to learn more. By continuing to use the site, you agree to this use of cookies and data.
  • In Belgium
  • List of Countries
  • For 7 days
  • Water Temperature
  • Satellite Maps
  • Weather Map
  • Weather Widgets
  • user-avatar
    Login

    Hourly Weather Nam Dinh

    Today, 18 February, Monday

    Time Temperature Precipitation Wind Pressure Humidity
    00:00 +23°C° 0.1 mm 4 mps 757 mmHg 89%
    01:00 +24°C° 0 mm 2 mps 757 mmHg 91%
    02:00 +24°C° 0.9 mm 3 mps 757 mmHg 91%
    03:00 +24°C° 0.9 mm 3 mps 757 mmHg 92%
    04:00 +24°C° 0.9 mm 3 mps 757 mmHg 92%
    05:00 +24°C° 0 mm 3 mps 757 mmHg 92%
    06:00 +24°C° 0 mm 3 mps 757 mmHg 91%
    07:00 +25°C° 0 mm 4 mps 757 mmHg 91%
    08:00 +26°C° 0 mm 4 mps 757 mmHg 82%
    09:00 +28°C° 0 mm 5 mps 758 mmHg 74%
    10:00 +30°C° 0 mm 6 mps 758 mmHg 66%
    11:00 +32°C° 0 mm 5 mps 757 mmHg 61%
    12:00 +33°C° 0 mm 5 mps 757 mmHg 55%
    13:00 +34°C° 0 mm 5 mps 756 mmHg 49%
    14:00 +34°C° 0 mm 5 mps 755 mmHg 48%
    15:00 +34°C° 0 mm 4 mps 755 mmHg 47%
    16:00 +34°C° 0 mm 4 mps 754 mmHg 47%
    17:00 +32°C° 0 mm 4 mps 755 mmHg 54%
    18:00 +30°C° 0 mm 4 mps 755 mmHg 62%
    19:00 +28°C° 0 mm 5 mps 755 mmHg 70%
    20:00 +28°C° 0 mm 5 mps 756 mmHg 71%
    21:00 +28°C° 0 mm 5 mps 756 mmHg 73%
    22:00 +27°C° 0 mm 5 mps 757 mmHg 75%
    23:00 +27°C° 0 mm 5 mps 757 mmHg 76%

    Tomorrow, 19 February, Tuesday

    Time Temperature Precipitation Wind Pressure Humidity
    00:00 +27°C° 0 mm 5 mps 757 mmHg 78%
    01:00 +27°C° 0 mm 5 mps 757 mmHg 80%
    02:00 +26°C° 0 mm 5 mps 756 mmHg 82%
    03:00 +26°C° 0 mm 5 mps 756 mmHg 83%
    04:00 +26°C° 0 mm 4 mps 756 mmHg 85%
    05:00 +26°C° 0 mm 4 mps 756 mmHg 86%
    06:00 +26°C° 0 mm 4 mps 757 mmHg 87%
    07:00 +26°C° 0 mm 3 mps 757 mmHg 87%
    08:00 +27°C° 0 mm 4 mps 758 mmHg 79%
    09:00 +29°C° 0 mm 4 mps 758 mmHg 71%
    10:00 +32°C° 0 mm 4 mps 759 mmHg 62%
    11:00 +33°C° 0 mm 4 mps 758 mmHg 57%
    12:00 +34°C° 0 mm 4 mps 758 mmHg 51%
    13:00 +35°C° 0 mm 5 mps 757 mmHg 46%
    14:00 +35°C° 0 mm 5 mps 757 mmHg 47%
    15:00 +35°C° 0 mm 5 mps 756 mmHg 48%
    16:00 +34°C° 0 mm 5 mps 756 mmHg 48%
    17:00 +33°C° 0 mm 5 mps 756 mmHg 56%
    18:00 +30°C° 0 mm 5 mps 757 mmHg 63%
    19:00 +28°C° 0 mm 5 mps 757 mmHg 70%
    20:00 +28°C° 0 mm 5 mps 758 mmHg 72%
    21:00 +28°C° 0 mm 5 mps 758 mmHg 73%
    22:00 +28°C° 0 mm 5 mps 759 mmHg 75%
    23:00 +27°C° 0 mm 5 mps 759 mmHg 77%

    Day after tomorrow, 20 February, Wednesday

    Time Temperature Precipitation Wind Pressure Humidity
    00:00 +27°C° 0 mm 5 mps 759 mmHg 78%
    01:00 +27°C° 0 mm 5 mps 759 mmHg 80%
    02:00 +27°C° 0 mm 5 mps 759 mmHg 82%
    03:00 +26°C° 0 mm 5 mps 758 mmHg 84%
    04:00 +26°C° 0 mm 5 mps 758 mmHg 87%
    05:00 +26°C° 0 mm 4 mps 759 mmHg 88%
    06:00 +26°C° 0 mm 4 mps 759 mmHg 89%
    07:00 +26°C° 0 mm 3 mps 759 mmHg 91%
    08:00 +27°C° 0 mm 4 mps 760 mmHg 84%
    09:00 +29°C° 0 mm 5 mps 761 mmHg 77%
    10:00 +30°C° 0 mm 5 mps 761 mmHg 70%
    11:00 +32°C° 0 mm 6 mps 760 mmHg 67%
    12:00 +33°C° 0 mm 6 mps 760 mmHg 65%
    13:00 +33°C° 0 mm 6 mps 759 mmHg 63%
    14:00 +33°C° 0 mm 6 mps 758 mmHg 65%
    15:00 +32°C° 0 mm 6 mps 757 mmHg 67%
    16:00 +32°C° 0 mm 6 mps 757 mmHg 69%
    17:00 +30°C° 0 mm 5 mps 757 mmHg 73%
    18:00 +29°C° 0 mm 5 mps 758 mmHg 77%
    19:00 +28°C° 0 mm 5 mps 758 mmHg 81%
    20:00 +27°C° 0 mm 5 mps 759 mmHg 82%
    21:00 +27°C° 0 mm 4 mps 759 mmHg 82%
    22:00 +27°C° 0 mm 4 mps 760 mmHg 83%
    23:00 +27°C° 0 mm 4 mps 760 mmHg 85%

    21 February, Thursday

    Time Temperature Precipitation Wind Pressure Humidity
    00:00 +27°C° 0 mm 4 mps 759 mmHg 86%
    01:00 +26°C° 0 mm 4 mps 759 mmHg 88%
    02:00 +26°C° 0 mm 4 mps 759 mmHg 88%
    03:00 +26°C° 0 mm 4 mps 758 mmHg 88%
    04:00 +27°C° 0 mm 5 mps 758 mmHg 88%
    05:00 +27°C° 0 mm 5 mps 759 mmHg 87%
    06:00 +27°C° 0 mm 5 mps 759 mmHg 87%
    07:00 +27°C° 0 mm 5 mps 760 mmHg 87%
    08:00 +27°C° 0 mm 5 mps 760 mmHg 85%
    09:00 +28°C° 0 mm 4 mps 760 mmHg 83%
    10:00 +28°C° 0 mm 4 mps 761 mmHg 81%
    11:00 +29°C° 0 mm 4 mps 760 mmHg 76%
    12:00 +30°C° 0 mm 4 mps 759 mmHg 72%
    13:00 +32°C° 0 mm 4 mps 758 mmHg 68%
    14:00 +32°C° 0 mm 4 mps 758 mmHg 69%
    15:00 +32°C° 0 mm 4 mps 757 mmHg 70%
    16:00 +32°C° 0 mm 5 mps 757 mmHg 71%
    17:00 +29°C° 0 mm 4 mps 757 mmHg 76%
    18:00 +28°C° 0 mm 4 mps 758 mmHg 82%
    19:00 +27°C° 0 mm 3 mps 758 mmHg 87%
    20:00 +27°C° 0 mm 3 mps 758 mmHg 87%
    21:00 +27°C° 0 mm 2 mps 759 mmHg 87%
    22:00 +27°C° 0 mm 2 mps 759 mmHg 87%
    23:00 +26°C° 0 mm 2 mps 759 mmHg 88%

    22 February, Friday

    Time Temperature Precipitation Wind Pressure Humidity
    00:00 +26°C° 0 mm 2 mps 759 mmHg 89%
    01:00 +26°C° 0 mm 2 mps 759 mmHg 90%
    02:00 +26°C° 0 mm 2 mps 759 mmHg 90%
    03:00 +26°C° 0 mm 2 mps 758 mmHg 91%
    04:00 +25°C° 0 mm 2 mps 758 mmHg 92%
    05:00 +26°C° 0.1 mm 2 mps 759 mmHg 90%
    06:00 +26°C° 0.1 mm 2 mps 759 mmHg 88%
    07:00 +26°C° 0.1 mm 2 mps 760 mmHg 86%
    08:00 +26°C° 0.1 mm 2 mps 760 mmHg 84%
    09:00 +27°C° 0.1 mm 3 mps 761 mmHg 81%
    10:00 +27°C° 0.1 mm 3 mps 762 mmHg 79%
    11:00 +27°C° 0 mm 3 mps 761 mmHg 75%
    12:00 +28°C° 0 mm 4 mps 760 mmHg 71%
    13:00 +29°C° 0 mm 4 mps 759 mmHg 68%
    14:00 +29°C° 0 mm 4 mps 759 mmHg 68%
    15:00 +28°C° 0 mm 4 mps 759 mmHg 68%
    16:00 +28°C° 0 mm 4 mps 758 mmHg 69%
    17:00 +27°C° 0 mm 4 mps 759 mmHg 73%
    18:00 +27°C° 0 mm 4 mps 759 mmHg 77%
    19:00 +26°C° 0 mm 3 mps 759 mmHg 81%
    20:00 +26°C° 0 mm 3 mps 760 mmHg 82%
    21:00 +25°C° 0 mm 2 mps 760 mmHg 83%
    22:00 +25°C° 0 mm 2 mps 760 mmHg 84%
    23:00 +25°C° 0 mm 2 mps 760 mmHg 85%

    23 February, Saturday

    Time Temperature Precipitation Wind Pressure Humidity
    00:00 +25°C° 0 mm 2 mps 759 mmHg 85%
    01:00 +25°C° 0 mm 2 mps 759 mmHg 86%
    02:00 +25°C° 0 mm 2 mps 759 mmHg 86%
    03:00 +25°C° 0 mm 2 mps 759 mmHg 86%
    04:00 +25°C° 0 mm 1 mps 758 mmHg 86%
    05:00 +25°C° 0.1 mm 2 mps 759 mmHg 86%
    06:00 +26°C° 0.1 mm 2 mps 759 mmHg 85%
    07:00 +26°C° 0.1 mm 2 mps 760 mmHg 84%
    08:00 +27°C° 0.1 mm 3 mps 760 mmHg 80%
    09:00 +27°C° 0.1 mm 4 mps 760 mmHg 75%
    10:00 +28°C° 0.1 mm 5 mps 760 mmHg 71%
    11:00 +28°C° 0.1 mm 6 mps 759 mmHg 71%
    12:00 +28°C° 0.1 mm 6 mps 758 mmHg 71%
    13:00 +28°C° 0.1 mm 6 mps 757 mmHg 71%
    14:00 +28°C° 0.1 mm 6 mps 757 mmHg 72%
    15:00 +28°C° 0.1 mm 6 mps 756 mmHg 72%
    16:00 +28°C° 0.1 mm 6 mps 756 mmHg 73%
    17:00 +27°C° 0 mm 5 mps 756 mmHg 77%
    18:00 +27°C° 0 mm 5 mps 756 mmHg 81%
    19:00 +26°C° 0 mm 4 mps 757 mmHg 84%
    20:00 +26°C° 0 mm 4 mps 757 mmHg 85%
    21:00 +26°C° 0 mm 4 mps 757 mmHg 85%
    22:00 +26°C° 0 mm 4 mps 757 mmHg 85%
    23:00 +26°C° 0 mm 4 mps 757 mmHg 86%
    Show more